Weather History for KHCD - November, 2012

Change the Weather History Date:

Thursday, November 22, 2012

  Actual Average Record
Temperature  
Mean Temperature 38 °F -  
Max Temperature 54 °F 36 °F 62 °F (1990)
Min Temperature 23 °F 20 °F 3 °F (1996)
Degree Days  
Heating Degree Days 26    
Moisture  
Dew Point 36 °F    
Average Humidity 85    
Maximum Humidity 97    
Minimum Humidity 69    
Precipitation  
Precipitation 0.00 in - - ()
Sea Level Pressure  
Sea Level Pressure 29.77 in    
Wind  
Wind Speed 12 mph (West)    
Max Wind Speed 29 mph    
Max Gust Speed 39 mph    
Visibility 9 miles    
Events Rain , Snow    
Averages and records for this station are not official NWS values.
T = Trace of Precipitation, MM = Missing Value Source: NWS Daily Summary

Daily Weather History Graph

Daily Weather History Graph

Search for Another Location

Airport or City:

Trip Planner

Search our weather history database for the weather conditions in past years. The results will help you decide how hot, cold, wet, or windy it might be!

Date:

Astronomy

Nov. 22, 2012 Rise Set
Actual Time 7:24 AM CST 4:42 PM CST
Civil Twilight 6:52 AM CST 5:14 PM CST
Nautical Twilight 6:16 AM CST 5:50 PM CST
Astronomical Twilight 5:41 AM CST 6:25 PM CST
Moon 1:40 PM CST (11/22) 1:32 AM CST (11/22)
Length of Visible Light 10h 22m
Length of Day
9h 17m
Waxing Gibbous, 71% of the Moon is Illuminated
Nov 22
Waxing Gibbous
Nov 28
Full
Dec 6
Last Quarter
Dec 13
New
Dec 19
First Quarter

Hourly Weather History & Observations

Time (CST) Temp. Windchill Dew Point Humidity Pressure Visibility Wind Dir Wind Speed Gust Speed Precip Events Conditions
12:08 AM 54.1 °F - 45.9 °F 74% 29.64 in 10.0 mi South 5.8 mph - N/A   Clear
12:28 AM 51.8 °F - 43.9 °F 74% 29.64 in 10.0 mi South 8.1 mph - N/A   Clear
12:49 AM 50.7 °F - 44.1 °F 78% 29.63 in 10.0 mi South 8.1 mph - N/A   Clear
1:08 AM 49.8 °F - 43.5 °F 79% 29.62 in 10.0 mi South 8.1 mph - N/A   Clear
1:29 AM 49.1 °F - 43.5 °F 81% 29.61 in 10.0 mi South 5.8 mph - N/A   Clear
1:49 AM 49.1 °F - 43.9 °F 82% 29.61 in 10.0 mi South 3.5 mph - N/A   Clear
2:09 AM 49.1 °F - 44.4 °F 84% 29.61 in 10.0 mi South 4.6 mph - N/A   Clear
2:28 AM 49.1 °F - 44.6 °F 84% 29.61 in 10.0 mi South 4.6 mph - N/A   Clear
2:49 AM 49.1 °F - 44.1 °F 83% 29.60 in 10.0 mi South 4.6 mph - N/A   Clear
3:09 AM 49.1 °F - 44.6 °F 84% 29.60 in 10.0 mi South 3.5 mph - N/A   Clear
3:29 AM 49.1 °F - 45.0 °F 86% 29.60 in 10.0 mi South 4.6 mph - N/A   Clear
3:48 AM 48.6 °F - 45.0 °F 87% 29.60 in 10.0 mi South 3.5 mph - N/A   Clear
4:09 AM 46.6 °F - 43.3 °F 88% 29.59 in 10.0 mi South 5.8 mph - N/A   Clear
4:29 AM 49.1 °F - 45.5 °F 87% 29.60 in 10.0 mi South 5.8 mph - N/A   Clear
4:48 AM 49.1 °F - 44.6 °F 84% 29.59 in 10.0 mi South 5.8 mph - N/A   Clear
5:09 AM 49.1 °F - 44.6 °F 84% 29.59 in 10.0 mi South 8.1 mph - N/A   Clear
5:28 AM 49.1 °F - 44.2 °F 83% 29.60 in 10.0 mi South 5.8 mph - N/A   Clear
5:49 AM 49.1 °F - 44.6 °F 84% 29.61 in 10.0 mi South 4.6 mph - N/A   Clear
6:09 AM 49.1 °F - 44.6 °F 84% 29.61 in 10.0 mi SSW 3.5 mph - N/A   Clear
6:28 AM 49.1 °F - 44.6 °F 84% 29.61 in 10.0 mi SSW 5.8 mph - N/A   Clear
6:49 AM 49.1 °F - 43.9 °F 82% 29.61 in 10.0 mi SW 5.8 mph - N/A   Clear
7:09 AM 49.1 °F - 43.3 °F 81% 29.62 in 10.0 mi SW 4.6 mph - N/A   Clear
7:29 AM 46.6 °F - 40.8 °F 80% 29.62 in 10.0 mi SW 3.5 mph - N/A   Clear
7:49 AM 42.8 °F - 38.3 °F 84% 29.61 in 10.0 mi Calm Calm - N/A   Clear
8:09 AM 44.1 °F 41.5 °F 38.8 °F 82% 29.62 in 10.0 mi SW 4.6 mph - N/A   Clear
8:28 AM 46.6 °F - 40.5 °F 79% 29.62 in 10.0 mi SW 4.6 mph - N/A   Clear
8:49 AM 49.1 °F - 40.3 °F 72% 29.64 in 10.0 mi WSW 15.0 mph 18.4 mph N/A   Clear
9:08 AM 49.1 °F - 39.2 °F 69% 29.64 in 10.0 mi West 17.3 mph - N/A   Clear
9:29 AM 47.1 °F - 38.8 °F 73% 29.65 in 10.0 mi West 18.4 mph - N/A   Clear
9:41 AM 46.6 °F - 39.2 °F 75% 29.66 in 10.0 mi West 15.0 mph 20.7 mph N/A   Clear
10:10 AM 46.4 °F 39.5 °F 39.2 °F 76% 29.67 in 10.0 mi West 17.3 mph - N/A   Clear
10:30 AM 42.8 °F 33.8 °F 37.4 °F 81% 29.70 in 10.0 mi West 21.9 mph - N/A   Clear
10:48 AM 46.4 °F 38.5 °F 40.1 °F 79% 29.70 in 10.0 mi WNW 21.9 mph 28.8 mph N/A   Clear
10:50 AM 46.4 °F 38.5 °F 39.2 °F 76% 29.70 in 10.0 mi WNW 21.9 mph 28.8 mph N/A   Clear
11:09 AM 42.1 °F 32.8 °F 36.5 °F 81% 29.72 in 10.0 mi WNW 21.9 mph 31.1 mph N/A   Mostly Cloudy
11:28 AM 40.5 °F 30.2 °F 35.8 °F 83% 29.73 in 10.0 mi WNW 24.2 mph 31.1 mph N/A   Overcast
11:49 AM 42.3 °F 34.1 °F 37.0 °F 82% 29.72 in 10.0 mi WNW 17.3 mph 24.2 mph N/A   Overcast
12:09 PM 41.5 °F 32.6 °F 36.0 °F 81% 29.73 in 10.0 mi NW 19.6 mph 26.5 mph N/A   Overcast
12:28 PM 40.3 °F 31.0 °F 34.9 °F 81% 29.75 in 10.0 mi WNW 19.6 mph 25.3 mph N/A   Overcast
12:48 PM 40.3 °F 30.7 °F 35.2 °F 82% 29.76 in 10.0 mi WNW 20.7 mph 28.8 mph N/A   Overcast
1:09 PM 39.6 °F 29.7 °F 34.2 °F 81% 29.76 in 10.0 mi WNW 20.7 mph 31.1 mph N/A   Overcast
1:28 PM 39.2 °F 28.3 °F 34.0 °F 82% 29.79 in 10.0 mi West 25.3 mph 31.1 mph N/A   Overcast
1:49 PM 39.2 °F 28.7 °F 33.8 °F 81% 29.80 in 10.0 mi WNW 23.0 mph 35.7 mph N/A   Overcast
2:09 PM 39.2 °F 29.3 °F 33.3 °F 79% 29.81 in 10.0 mi WNW 20.7 mph 32.2 mph N/A   Overcast
2:28 PM 39.2 °F 28.7 °F 32.9 °F 78% 29.82 in 10.0 mi WNW 23.0 mph 32.2 mph N/A   Overcast
2:49 PM 36.9 °F 25.1 °F 32.0 °F 83% 29.82 in 7.0 mi WNW 25.3 mph 31.1 mph N/A Snow Light Snow
3:09 PM 34.0 °F 24.2 °F 32.2 °F 93% 29.85 in 1.2 mi WNW 15.0 mph 21.9 mph N/A Snow Light Snow
3:28 PM 34.0 °F 23.4 °F 33.3 °F 97% 29.86 in 2.5 mi WNW 17.3 mph 25.3 mph N/A Snow Light Snow
3:48 PM 34.0 °F 26.0 °F 33.3 °F 97% 29.88 in 1.8 mi West 10.4 mph 19.6 mph N/A Snow Light Snow
4:09 PM 34.0 °F 24.6 °F 33.3 °F 97% 29.88 in 4.0 mi WNW 13.8 mph 23.0 mph N/A Snow Light Snow
4:29 PM 34.0 °F 24.2 °F 32.9 °F 96% 29.90 in 4.0 mi WNW 15.0 mph 21.9 mph N/A Snow Light Snow
4:49 PM 34.0 °F 23.4 °F 32.9 °F 96% 29.90 in 3.0 mi WNW 17.3 mph - N/A Snow Light Snow
5:09 PM 34.0 °F 22.7 °F 32.9 °F 96% 29.92 in 4.0 mi WNW 19.6 mph 31.1 mph N/A Snow Light Snow
5:29 PM 34.0 °F 23.0 °F 32.9 °F 96% 29.93 in 2.5 mi WNW 18.4 mph 26.5 mph N/A Snow Light Snow
5:48 PM 34.0 °F 23.0 °F 32.7 °F 95% 29.94 in 10.0 mi WNW 18.4 mph 26.5 mph N/A Rain Light Rain
6:09 PM 34.0 °F 23.0 °F 32.0 °F 92% 29.95 in 10.0 mi WNW 18.4 mph 31.1 mph N/A   Overcast
6:28 PM 34.0 °F 22.4 °F 31.8 °F 92% 29.95 in 10.0 mi WNW 20.7 mph 27.6 mph N/A   Overcast
6:49 PM 34.0 °F 22.4 °F 31.5 °F 90% 29.96 in 10.0 mi WNW 20.7 mph 33.4 mph N/A   Overcast
7:09 PM 34.0 °F 21.8 °F 31.8 °F 92% 29.96 in 10.0 mi WNW 23.0 mph 28.8 mph N/A   Overcast
7:29 PM 31.8 °F 19.6 °F 28.9 °F 89% 29.96 in 10.0 mi WNW 20.7 mph 32.2 mph N/A   Overcast
7:49 PM 31.8 °F 18.1 °F 29.1 °F 90% 29.96 in 10.0 mi West 26.5 mph 32.2 mph N/A   Overcast
8:09 PM 31.8 °F 19.0 °F 29.3 °F 90% 29.98 in 10.0 mi WNW 23.0 mph 31.1 mph N/A   Overcast
8:29 PM 30.6 °F 17.3 °F 28.4 °F 92% 29.99 in 10.0 mi WNW 23.0 mph 32.2 mph N/A   Overcast
8:48 PM 29.3 °F 15.3 °F 27.3 °F 92% 29.99 in 10.0 mi WNW 24.2 mph 32.2 mph N/A   Overcast
9:09 PM 29.3 °F 15.3 °F 26.4 °F 89% 30.00 in 10.0 mi WNW 24.2 mph 35.7 mph N/A   Overcast
9:28 PM 29.3 °F 16.2 °F 25.9 °F 87% 30.01 in 10.0 mi WNW 20.7 mph 39.1 mph N/A   Overcast
9:49 PM 26.6 °F 10.8 °F 23.4 °F 88% 30.01 in 10.0 mi WNW 27.6 mph 38.0 mph N/A   Overcast
10:09 PM 26.6 °F 12.4 °F 22.6 °F 85% 30.02 in 10.0 mi WNW 21.9 mph 29.9 mph N/A   Overcast
10:29 PM 24.4 °F 7.6 °F 20.3 °F 84% 30.02 in 10.0 mi WNW 28.8 mph 35.7 mph N/A   Overcast
10:48 PM 24.3 °F 8.9 °F 20.1 °F 84% 30.03 in 7.0 mi WNW 23.0 mph 36.8 mph N/A Snow Light Snow
11:09 PM 24.3 °F 8.3 °F 21.0 °F 87% 30.03 in 3.0 mi WNW 25.3 mph 32.2 mph N/A Snow Light Snow
11:28 PM 23.4 °F 6.8 °F 20.7 °F 89% 30.04 in 2.5 mi WNW 26.5 mph 33.4 mph N/A Snow Light Snow
11:49 PM 23.0 °F 7.2 °F 20.7 °F 91% 30.05 in 3.0 mi WNW 23.0 mph 29.9 mph N/A Snow Light Snow